User: anonymous   Login
Location: Newark
(44.2764°N, 5.2753°E)
Time: 22:08:19
(UTC+00:00)
Language:

ISS - Orbit

View from above orbital plane
View from above orbital plane
View from above satellite
View from above satellite

Ground track
Ground track

The orbit data is extracted from the following two-line orbital elements,

1 25544U 98067A   20051.61662857  .00016717  00000-0  10270-3 0  9017
2 25544  51.6408 210.1989 0004948 292.7020  67.3618 15.49198742 13783
Epoch (UTC): 20 February 2020 14:47:56
Eccentricity: 0.0004948
inclination: 51.6408°
perigee height: 416 km
apogee height: 422 km
right ascension of ascending node: 210.1989°
argument of perigee: 292.7020°
revolutions per day: 15.49198742
mean anomaly at epoch: 67.3618°
orbit number at epoch: 1378

The dashed part of the orbit path shows where the satellite is in the earth's shadow,  

DLR